| time (UTC) | temp F | wind direction | speed MPH | gust MPH | rain 1hr in | rain 24hr in | rain mn in | humidity % | barometer mb |
| 20260831140008 | 68 | 44 | 0.0 | 5.0 | 0.00 | 0.01 | 0.00 | 84 | 1024.3 |
| 20260831134507 | 67 | 76 | 3.0 | 6.0 | 0.00 | 0.01 | 0.00 | 85 | 1024.2 |
| 20260831133008 | 67 | 34 | 0.0 | 4.0 | 0.00 | 0.01 | 0.00 | 86 | 1024.5 |
| 20260831131507 | 66 | 49 | 2.0 | 5.0 | 0.00 | 0.01 | 0.00 | 87 | 1024.6 |
| 20260831130004 | 66 | 63 | 2.0 | 5.0 | 0.00 | 0.01 | 0.00 | 87 | 1024.6 |
| 20260831124506 | 65 | 67 | 2.0 | 3.0 | 0.00 | 0.01 | 0.00 | 88 | 1024.7 |
| 20260831123005 | 65 | 67 | 1.0 | 4.0 | 0.00 | 0.01 | 0.00 | 88 | 1024.4 |
| 20260831121509 | 64 | 185 | 0.0 | 2.0 | 0.00 | 0.01 | 0.00 | 88 | 1024.8 |
| 20260831120002 | 64 | 185 | 0.0 | 1.0 | 0.00 | 0.01 | 0.00 | 88 | 1025.0 |
| 20260831114501 | 64 | 186 | 0.0 | 1.0 | 0.00 | 0.01 | 0.00 | 88 | 1024.8 |
| 20260831113103 | 64 | 184 | 1.0 | 3.0 | 0.00 | 0.01 | 0.00 | 87 | 1024.7 |
| 20260831111609 | 64 | 184 | 0.0 | 2.0 | 0.00 | 0.01 | 0.00 | 87 | 1024.7 |
| 20260831110059 | 64 | 172 | 0.0 | 1.0 | 0.00 | 0.01 | 0.00 | 87 | 1024.5 |
| 20260831104559 | 63 | 163 | 0.0 | 2.0 | 0.00 | 0.01 | 0.00 | 87 | 1024.1 |
| 20260831103107 | 63 | 163 | 0.0 | 1.0 | 0.00 | 0.01 | 0.00 | 87 | 1024.1 |
| 20260831101603 | 63 | 163 | 1.0 | 3.0 | 0.00 | 0.01 | 0.00 | 87 | 1024.2 |
| 20260831100057 | 63 | 204 | 0.0 | 1.0 | 0.00 | 0.01 | 0.00 | 87 | 1024.3 |
| 20260831094556 | 63 | 207 | 0.0 | 1.0 | 0.00 | 0.01 | 0.00 | 87 | 1024.3 |
| 20260831093057 | 63 | 213 | 0.0 | 2.0 | 0.00 | 0.01 | 0.00 | 87 | 1024.4 |
| 20260831091608 | 63 | 213 | 1.0 | 2.0 | 0.00 | 0.01 | 0.00 | 86 | 1024.5 |
| 20260831084553 | 63 | 196 | 1.0 | 3.0 | 0.00 | 0.01 | 0.00 | 85 | 1023.9 |
| 20260831083052 | 63 | 192 | 1.0 | 2.0 | 0.00 | 0.01 | 0.00 | 84 | 1024.2 |
| 20260831081551 | 64 | 200 | 0.0 | 0.0 | 0.00 | 0.01 | 0.00 | 84 | 1024.0 |
| 20260831074547 | 65 | 197 | 0.0 | 2.0 | 0.00 | 0.01 | 0.00 | 83 | 1024.0 |
| 20260831073046 | 65 | 209 | 1.0 | 3.0 | 0.00 | 0.01 | 0.00 | 83 | 1024.1 |
| 20260831071543 | 66 | 215 | 0.0 | 2.0 | 0.00 | 0.01 | 0.00 | 82 | 1023.8 |
| 20260831070042 | 66 | 215 | 0.0 | 1.0 | 0.00 | 0.01 | 0.00 | 82 | 1024.0 |
| 20260831064542 | 67 | 215 | 0.0 | 1.0 | 0.00 | 0.01 | 0.00 | 82 | 1023.9 |
| 20260831063039 | 67 | 217 | 0.0 | 2.0 | 0.00 | 0.01 | 0.00 | 82 | 1024.0 |
| 20260831061538 | 67 | 217 | 0.0 | 4.0 | 0.00 | 0.01 | 0.00 | 82 | 1024.3 |
| 20260831060041 | 67 | 213 | 3.0 | 5.0 | 0.00 | 0.01 | 0.00 | 81 | 1024.5 |
| 20260831054536 | 67 | 273 | 1.0 | 3.0 | 0.00 | 0.01 | 0.00 | 81 | 1024.5 |
| 20260831053035 | 67 | 273 | 0.0 | 2.0 | 0.00 | 0.01 | 0.00 | 80 | 1024.6 |
| 20260831051535 | 67 | 273 | 1.0 | 3.0 | 0.00 | 0.01 | 0.00 | 80 | 1024.6 |
| 20260831050033 | 67 | 273 | 1.0 | 3.0 | 0.00 | 0.01 | 0.00 | 80 | 1024.5 |
| 20260831044531 | 68 | 273 | 1.0 | 3.0 | 0.01 | 0.01 | 0.00 | 79 | 1024.6 |
| 20260831043033 | 68 | 273 | 1.0 | 2.0 | 0.01 | 0.01 | 0.00 | 79 | 1024.6 |
| 20260831041527 | 68 | 273 | 0.0 | 2.0 | 0.01 | 0.01 | 0.00 | 77 | 1024.6 |
| 20260831040028 | 69 | 273 | 0.0 | 1.0 | 0.01 | 0.01 | 0.00 | 77 | 1024.6 |
| 20260831034526 | 69 | 273 | 0.0 | 1.0 | 0.00 | 0.00 | 0.00 | 77 | 1024.6 |
| 20260831033028 | 69 | 273 | 0.0 | 1.0 | 0.00 | 0.00 | 0.00 | 77 | 1024.6 |
| 20260831031535 | 69 | 273 | 1.0 | 3.0 | 0.00 | 0.00 | 0.00 | 76 | 1024.8 |
| 20260831030026 | 69 | 273 | 0.0 | 2.0 | 0.00 | 0.00 | 0.00 | 76 | 1024.5 |
| 20260831024524 | 69 | 273 | 0.0 | 3.0 | 0.00 | 0.00 | 0.00 | 76 | 1024.6 |
| 20260831023022 | 69 | 273 | 1.0 | 3.0 | 0.00 | 0.00 | 0.00 | 76 | 1024.8 |
| 20260831021522 | 69 | 273 | 2.0 | 5.0 | 0.00 | 0.00 | 0.00 | 76 | 1024.8 |
| 20260831020022 | 69 | 211 | 2.0 | 4.0 | 0.00 | 0.00 | 0.00 | 75 | 1024.8 |
| 20260831014622 | 69 | 256 | 2.0 | 7.0 | 0.00 | 0.00 | 0.00 | 75 | 1024.7 |
| 20260831013021 | 69 | 290 | 4.0 | 7.0 | 0.00 | 0.00 | 0.00 | 74 | 1024.4 |
| 20260831011519 | 70 | 270 | 4.0 | 7.0 | 0.00 | 0.00 | 0.00 | 74 | 1024.5 |
| 20260831010031 | 70 | 292 | 2.0 | 10.0 | 0.00 | 0.00 | 0.00 | 73 | 1024.3 |
| 20260831004519 | 71 | 294 | 4.0 | 7.0 | 0.00 | 0.00 | 0.00 | 73 | 1024.2 |
| 20260831003020 | 71 | 15 | 2.0 | 5.0 | 0.00 | 0.00 | 0.00 | 72 | 1024.0 |
| 20260831001518 | 71 | 273 | 2.0 | 5.0 | 0.00 | 0.00 | 0.00 | 72 | 1023.6 |
| 20260831000024 | 71 | 293 | 1.0 | 5.0 | 0.00 | 0.00 | 0.00 | 72 | 1023.5 |
| 20260830234531 | 71 | 290 | 3.0 | 5.0 | 0.00 | 0.00 | 0.00 | 73 | 1023.4 |
| 20260830233017 | 72 | 292 | 1.0 | 3.0 | 0.00 | 0.00 | 0.00 | 73 | 1023.3 |
| 20260830231516 | 72 | 306 | 1.0 | 5.0 | 0.00 | 0.00 | 0.00 | 73 | 1023.2 |
| 20260830230023 | 72 | 305 | 2.0 | 5.0 | 0.00 | 0.00 | 0.00 | 73 | 1023.4 |
| 20260830224516 | 72 | 262 | 2.0 | 6.0 | 0.00 | 0.00 | 0.00 | 72 | 1023.2 |
| 20260830223016 | 72 | 258 | 2.0 | 4.0 | 0.00 | 0.00 | 0.00 | 72 | 1023.2 |
| 20260830221523 | 72 | 241 | 2.0 | 5.0 | 0.00 | 0.00 | 0.00 | 72 | 1023.2 |
| 20260830220014 | 72 | 259 | 3.0 | 5.0 | 0.00 | 0.00 | 0.00 | 71 | 1023.1 |
| 20260830214513 | 72 | 286 | 3.0 | 6.0 | 0.00 | 0.00 | 0.00 | 70 | 1023.1 |
| 20260830213019 | 73 | 258 | 3.0 | 8.0 | 0.00 | 0.00 | 0.00 | 70 | 1023.1 |
| 20260830211513 | 73 | 270 | 3.0 | 9.0 | 0.00 | 0.00 | 0.00 | 71 | 1023.1 |
| 20260830210012 | 72 | 235 | 4.0 | 8.0 | 0.00 | 0.00 | 0.00 | 70 | 1023.3 |
| 20260830204519 | 73 | 201 | 4.0 | 8.0 | 0.00 | 0.00 | 0.00 | 68 | 1023.2 |
| 20260830203011 | 74 | 14 | 1.0 | 4.0 | 0.00 | 0.00 | 0.00 | 66 | 1023.4 |
| 20260830201511 | 74 | 14 | 1.0 | 5.0 | 0.00 | 0.00 | 0.00 | 65 | 1023.0 |
| 20260830200010 | 75 | 20 | 2.0 | 6.0 | 0.00 | 0.00 | 0.00 | 64 | 1022.9 |
| 20260830194510 | 75 | 325 | 3.0 | 10.0 | 0.00 | 0.00 | 0.00 | 64 | 1023.0 |
| 20260830193009 | 77 | 316 | 6.0 | 12.0 | 0.00 | 0.00 | 0.00 | 64 | 1023.0 |
| 20260830191508 | 77 | 261 | 3.0 | 7.0 | 0.00 | 0.00 | 0.00 | 63 | 1022.8 |
| 20260830190008 | 78 | 245 | 3.0 | 6.0 | 0.00 | 0.00 | 0.00 | 60 | 1022.8 |
| 20260830184517 | 78 | 253 | 3.0 | 8.0 | 0.00 | 0.00 | 0.00 | 59 | 1022.7 |
| 20260830183007 | 78 | 262 | 4.0 | 8.0 | 0.00 | 0.00 | 0.00 | 58 | 1022.7 |
| 20260830181506 | 79 | 308 | 3.0 | 8.0 | 0.00 | 0.00 | 0.00 | 59 | 1022.8 |
| 20260830180009 | 79 | 262 | 3.0 | 9.0 | 0.00 | 0.00 | 0.00 | 58 | 1022.9 |
| 20260830174504 | 79 | 317 | 2.0 | 7.0 | 0.00 | 0.00 | 0.00 | 59 | 1022.9 |
| 20260830173005 | 77 | 222 | 3.0 | 10.0 | 0.00 | 0.00 | 0.00 | 61 | 1023.2 |
| 20260830171501 | 78 | 247 | 4.0 | 10.0 | 0.00 | 0.00 | 0.00 | 60 | 1023.2 |
| 20260830170103 | 77 | 246 | 7.0 | 11.0 | 0.00 | 0.00 | 0.00 | 61 | 1023.3 |
| 20260830164609 | 77 | 298 | 3.0 | 9.0 | 0.00 | 0.00 | 0.00 | 62 | 1023.5 |
| 20260830163109 | 76 | 206 | 5.0 | 12.0 | 0.00 | 0.00 | 0.00 | 64 | 1023.7 |
| 20260830161554 | 76 | 275 | 6.0 | 10.0 | 0.00 | 0.00 | 0.00 | 64 | 1023.9 |
| 20260830160050 | 75 | 226 | 3.0 | 8.0 | 0.00 | 0.00 | 0.00 | 64 | 1024.0 |
| 20260830154554 | 74 | 261 | 2.0 | 10.0 | 0.00 | 0.00 | 0.00 | 67 | 1024.2 |
| 20260830153048 | 74 | 270 | 2.0 | 5.0 | 0.00 | 0.00 | 0.00 | 68 | 1024.2 |
| 20260830151543 | 72 | 294 | 1.0 | 4.0 | 0.00 | 0.00 | 0.00 | 69 | 1024.3 |
| 20260830150042 | 72 | 298 | 0.0 | 4.0 | 0.00 | 0.00 | 0.00 | 70 | 1024.4 |
| 20260830144535 | 70 | 88 | 0.0 | 2.0 | 0.00 | 0.00 | 0.00 | 73 | 1024.5 |
| 20260830143033 | 69 | 116 | 0.0 | 3.0 | 0.00 | 0.00 | 0.00 | 75 | 1024.6 |
| 20260830141533 | 68 | 155 | 0.0 | 2.0 | 0.00 | 0.00 | 0.00 | 75 | 1024.3 |